FW7582 Weather Reports


time (UTC)temp
C
wind
direction
speed
KPH
gust
KPH
rain 1hr
cm
rain 24hr
cm
rain mn
cm
humidity
%
barometer
mb
20260505022905 21 320 0.0 1.6 0.00 0.00 0.00 54 1012.5
20260505022402 22 321 0.0 3.2 0.00 0.00 0.00 50 1012.4
20260505021859 22 8 0.0 0.0 0.00 0.00 0.00 50 1012.5
20260505021355 22 340 0.0 3.2 0.00 0.00 0.00 47 1012.2
20260505020851 23 343 0.0 0.0 0.00 0.00 0.00 45 1012.2
20260505020347 23 5 0.0 0.0 0.00 0.00 0.00 48 1012.3
20260505015844 23 10 0.0 1.6 0.00 0.00 0.00 50 1012.4
20260505015341 23 298 1.6 1.6 0.00 0.00 0.00 45 1012.3
20260505014839 24 355 0.0 0.0 0.00 0.00 0.00 42 1012.4
20260505014335 24 328 0.0 0.0 0.00 0.00 0.00 42 1012.6
20260505013832 25 4 0.0 0.0 0.00 0.00 0.00 43 1012.5
20260505013329 25 19 0.0 3.2 0.00 0.00 0.00 41 1012.4
20260505012828 25 23 0.0 0.0 0.00 0.00 0.00 39 1012.5
20260505012325 25 328 0.0 0.0 0.00 0.00 0.00 37 1012.4
20260505011820 25 3 0.0 0.0 0.00 0.00 0.00 41 1012.6
20260505011318 25 339 0.0 0.0 0.00 0.00 0.00 38 1012.7
20260505010814 25 4 0.0 0.0 0.00 0.00 0.00 38 1012.5
20260505010310 25 315 0.0 0.0 0.00 0.00 0.00 36 1012.6
20260505005806 25 1 0.0 1.6 0.00 0.00 0.00 37 1012.7
20260505005304 25 340 0.0 1.6 0.00 0.00 0.00 39 1012.6
20260505004801 25 336 0.0 1.6 0.00 0.00 0.00 38 1012.5
20260505004256 25 347 0.0 1.6 0.00 0.00 0.00 36 1012.4
20260505003754 25 359 0.0 3.2 0.00 0.00 0.00 38 1012.6
20260505003252 25 111 3.2 4.8 0.00 0.00 0.00 35 1012.4
20260505002748 26 6 0.0 1.6 0.00 0.00 0.00 38 1012.6
20260505002245 26 278 0.0 1.6 0.00 0.00 0.00 40 1012.6
20260505001743 26 118 1.6 1.6 0.00 0.00 0.00 36 1012.6
20260505001240 26 22 1.6 4.8 0.00 0.00 0.00 37 1012.4
20260505000736 26 97 0.0 3.2 0.00 0.00 0.00 39 1012.4
20260505000235 26 275 0.0 3.2 0.00 0.00 0.00 33 1012.8
20260504235731 26 352 0.0 1.6 0.00 0.00 0.00 37 1012.6
20260504235227 26 54 0.0 1.6 0.00 0.00 0.00 36 1012.8
20260504234725 26 296 0.0 1.6 0.00 0.00 0.00 35 1012.8
20260504234222 27 181 1.6 3.2 0.00 0.00 0.00 35 1012.7
20260504233718 27 326 0.0 1.6 0.00 0.00 0.00 36 1012.8
20260504233214 27 294 1.6 3.2 0.00 0.00 0.00 37 1012.7
20260504232711 27 309 1.6 3.2 0.00 0.00 0.00 35 1012.9
20260504232208 27 293 1.6 3.2 0.00 0.00 0.00 36 1012.6
20260504231704 27 346 0.0 1.6 0.00 0.00 0.00 35 1012.8
20260504231201 27 71 3.2 4.8 0.00 0.00 0.00 35 1012.6
20260504230657 27 324 1.6 1.6 0.00 0.00 0.00 36 1012.8
20260504230156 28 356 1.6 1.6 0.00 0.00 0.00 35 1012.7
20260504225654 27 346 0.0 0.0 0.00 0.00 0.00 37 1012.9
20260504225149 27 254 3.2 3.2 0.00 0.00 0.00 33 1013.0
20260504224647 27 221 1.6 4.8 0.00 0.00 0.00 37 1013.0
20260504224143 27 340 0.0 3.2 0.00 0.00 0.00 38 1013.1
20260504223641 27 285 0.0 4.8 0.00 0.00 0.00 35 1013.0
20260504223136 28 289 3.2 4.8 0.00 0.00 0.00 32 1013.4
20260504222634 28 269 0.0 1.6 0.00 0.00 0.00 37 1013.2
20260504222130 28 275 0.0 3.2 0.00 0.00 0.00 36 1013.2
20260504221628 27 285 1.6 4.8 0.00 0.00 0.00 37 1013.3
20260504221125 28 212 1.6 3.2 0.00 0.00 0.00 31 1013.5
20260504220621 29 320 3.2 4.8 0.00 0.00 0.00 31 1013.7
20260504220119 28 288 1.6 1.6 0.00 0.00 0.00 31 1013.7
20260504215615 27 325 0.0 1.6 0.00 0.00 0.00 35 1013.4
20260504215113 28 11 0.0 4.8 0.00 0.00 0.00 33 1013.4
20260504214608 28 161 1.6 3.2 0.00 0.00 0.00 32 1013.7
20260504214105 27 341 0.0 4.8 0.00 0.00 0.00 43 1013.4
20260504213601 28 317 0.0 1.6 0.00 0.00 0.00 38 1013.4
20260504213058 28 208 1.6 4.8 0.00 0.00 0.00 37 1013.3
20260504212554 28 142 1.6 3.2 0.00 0.00 0.00 35 1013.4
20260504212052 28 331 0.0 3.2 0.00 0.00 0.00 36 1013.2
20260504211549 28 325 0.0 4.8 0.00 0.00 0.00 35 1013.5
20260504211045 28 320 1.6 3.2 0.00 0.00 0.00 37 1013.4
20260504210542 28 322 0.0 6.4 0.00 0.00 0.00 40 1013.3
20260504210039 29 308 0.0 1.6 0.00 0.00 0.00 41 1013.4
20260504205537 28 309 1.6 1.6 0.00 0.00 0.00 37 1013.8
20260504205035 27 273 0.0 1.6 0.00 0.00 0.00 43 1013.8
20260504204532 28 293 0.0 1.6 0.00 0.00 0.00 45 1013.7
20260504204031 27 357 0.0 0.0 0.00 0.00 0.00 40 1013.9
20260504203529 27 194 1.6 3.2 0.00 0.00 0.00 36 1013.9
20260504203026 27 333 0.0 1.6 0.00 0.00 0.00 41 1013.7
20260504202521 27 294 1.6 1.6 0.00 0.00 0.00 38 1013.8
20260504202019 27 314 0.0 1.6 0.00 0.00 0.00 45 1013.5
20260504201515 27 353 0.0 1.6 0.00 0.00 0.00 38 1013.8
20260504201013 27 19 0.0 1.6 0.00 0.00 0.00 37 1013.7
20260504200510 26 320 0.0 3.2 0.00 0.00 0.00 45 1013.7
20260504200006 26 302 0.0 1.6 0.00 0.00 0.00 41 1013.7
20260504195502 26 347 0.0 1.6 0.00 0.00 0.00 42 1013.9
20260504194959 26 229 0.0 3.2 0.00 0.00 0.00 43 1013.8
20260504194455 26 42 0.0 1.6 0.00 0.00 0.00 40 1013.8
20260504193951 26 301 0.0 0.0 0.00 0.00 0.00 38 1014.0
20260504193449 26 348 0.0 1.6 0.00 0.00 0.00 39 1013.9
20260504192947 26 56 0.0 0.0 0.00 0.00 0.00 40 1014.0
20260504192444 26 170 0.0 1.6 0.00 0.00 0.00 36 1014.0
20260504191943 26 335 0.0 1.6 0.00 0.00 0.00 48 1014.1
20260504191441 26 313 0.0 0.0 0.00 0.00 0.00 45 1014.3
20260504190935 25 294 1.6 3.2 0.00 0.00 0.00 38 1014.2
20260504190431 25 328 0.0 1.6 0.00 0.00 0.00 46 1014.0
20260504185928 25 288 0.0 0.0 0.00 0.00 0.00 44 1014.2
20260504185425 25 346 0.0 1.6 0.00 0.00 0.00 40 1014.3
20260504184921 25 351 0.0 0.0 0.00 0.00 0.00 41 1014.2
20260504184417 24 307 0.0 1.6 0.00 0.00 0.00 49 1014.4
20260504183913 25 327 3.2 4.8 0.00 0.00 0.00 42 1014.2
20260504183411 25 340 1.6 3.2 0.00 0.00 0.00 44 1014.0
20260504182908 24 2 0.0 1.6 0.00 0.00 0.00 44 1014.4
20260504182405 23 328 0.0 0.0 0.00 0.00 0.00 46 1014.1
20260504181902 23 281 1.6 1.6 0.00 0.00 0.00 50 1014.2
20260504181359 23 87 1.6 1.6 0.00 0.00 0.00 45 1014.2
20260504180858 23 21 0.0 0.0 0.00 0.00 0.00 47 1014.4
20260504180356 23 271 1.6 4.8 0.00 0.00 0.00 45 1014.4
20260504175854 23 279 0.0 3.2 0.00 0.00 0.00 45 1014.3
20260504175350 23 328 0.0 0.0 0.00 0.00 0.00 48 1014.4
20260504174849 22 25 1.6 3.2 0.00 0.00 0.00 52 1014.3
20260504174346 22 2 0.0 1.6 0.00 0.00 0.00 53 1014.1
20260504173843 22 347 0.0 0.0 0.00 0.00 0.00 52 1014.1
20260504173340 22 333 0.0 0.0 0.00 0.00 0.00 56 1014.3
20260504172836 22 300 0.0 1.6 0.00 0.00 0.00 53 1014.2
20260504172333 21 13 0.0 1.6 0.00 0.00 0.00 58 1014.3
20260504171829 21 308 0.0 1.6 0.00 0.00 0.00 63 1014.3
20260504171326 21 23 0.0 0.0 0.00 0.00 0.00 61 1014.2
20260504170824 21 33 0.0 0.0 0.00 0.00 0.00 62 1014.2
20260504170320 20 34 0.0 1.6 0.00 0.00 0.00 60 1014.3
20260504160238 18 21 0.0 0.0 0.00 0.00 0.00 68 1014.1
20260504150704 13 19 0.0 0.0 0.00 0.00 0.00 89 1013.8
20260504150201 13 19 0.0 0.0 0.00 0.00 0.00 91 1013.9
20260504141130 10 348 0.0 0.0 0.00 0.00 0.00 99 1013.4
20260504140627 10 349 0.0 0.0 0.00 0.00 0.00 99 1013.4
20260504140122 10 349 0.0 0.0 0.00 0.00 0.00 99 1013.3
20260504130550 8 352 0.0 0.0 0.00 0.00 0.00 99 1013.3
20260504110438 10 351 0.0 0.0 0.00 0.00 0.00 98 1012.8
20260504100401 10 351 0.0 0.0 0.00 0.00 0.00 97 1012.8
20260504081754 11 349 0.0 0.0 0.00 0.00 0.00 94 1012.6
20260504081250 11 349 0.0 0.0 0.00 0.00 0.00 94 1012.9
20260504080747 11 349 0.0 0.0 0.00 0.00 0.00 94 1013.0
20260504080243 11 349 0.0 0.0 0.00 0.00 0.00 94 1012.8
20260504070211 12 347 0.0 0.0 0.00 0.00 0.00 90 1013.0
20260504060131 14 345 0.0 0.0 0.00 0.00 0.00 85 1012.9
20260504050600 15 344 0.0 0.0 0.00 0.00 0.00 84 1012.9
20260504045554 16 344 0.0 0.0 0.00 0.00 0.00 83 1012.9
20260504045049 16 344 0.0 0.0 0.00 0.00 0.00 81 1013.1
20260504044547 16 344 0.0 0.0 0.00 0.00 0.00 81 1013.1
20260504044043 16 344 0.0 0.0 0.00 0.00 0.00 81 1012.8
20260504043540 16 344 0.0 0.0 0.00 0.00 0.00 81 1012.9
20260504043038 16 344 0.0 0.0 0.00 0.00 0.00 80 1013.2
20260504042534 16 344 0.0 0.0 0.00 0.00 0.00 79 1012.7
20260504042032 16 25 0.0 0.0 0.00 0.00 0.00 79 1012.9
20260504041527 17 25 0.0 0.0 0.00 0.00 0.00 78 1013.0
20260504041023 17 25 0.0 0.0 0.00 0.00 0.00 78 1013.0
20260504040521 17 25 0.0 0.0 0.00 0.00 0.00 77 1012.9
20260504040018 17 26 0.0 0.0 0.00 0.00 0.00 77 1012.7
20260504035515 17 26 0.0 0.0 0.00 0.00 0.00 75 1012.7
20260504035011 18 26 0.0 0.0 0.00 0.00 0.00 74 1012.6
20260504034509 18 26 0.0 0.0 0.00 0.00 0.00 74 1012.7
20260504034006 18 26 0.0 0.0 0.00 0.00 0.00 73 1012.5
20260504033503 18 26 0.0 0.0 0.00 0.00 0.00 70 1012.6
20260504033000 19 26 0.0 0.0 0.00 0.00 0.00 70 1012.6
20260504032457 19 26 0.0 0.0 0.00 0.00 0.00 68 1012.9
20260504031954 20 26 0.0 0.0 0.00 0.00 0.00 67 1012.4
20260504031451 20 26 0.0 0.0 0.00 0.00 0.00 65 1012.5
20260504030947 20 26 0.0 0.0 0.00 0.00 0.00 64 1012.5
20260504030445 21 26 0.0 0.0 0.00 0.00 0.00 62 1012.4
20260504025940 21 29 0.0 0.0 0.00 0.00 0.00 59 1012.4
20260504025437 21 29 0.0 0.0 0.00 0.00 0.00 59 1012.5
20260504024935 21 29 0.0 0.0 0.00 0.00 0.00 58 1012.3
20260504024432 22 29 0.0 0.0 0.00 0.00 0.00 57 1012.4
20260504023928 22 29 0.0 0.0 0.00 0.00 0.00 55 1012.2
20260504023425 23 15 0.0 0.0 0.00 0.00 0.00 52 1012.4